Back to catalog

ONEWEB-0274

AliveCommunicationsPO
NORAD 48992·PAYLOAD·🇬🇧 United Kingdom

Launched Jul 1, 2021 from Vostochny Cosmodrome

Loading…

Next Passes (next 24 hours)

TLE

FreshSource: CelesTrak SupGP

Epoch: Sep 14, 2026, 11:34 UTC

1 48992C 21060AB  26257.48245787 -.00002368  00000+0 -62006-2 0  2571
2 48992  87.9150 211.0486 0002367  81.8219  20.2176 13.16599855    14

Track ONEWEB-0274 in real time with AllMySat

Download on the App Store